Retour au catalogue

THORAD AGENA D DEB

ActifSSO
NORAD 6139·DEBRIS·🇺🇸 United States

Lancé Apr 8, 1970 depuis Vandenberg Space Force Base

Loading…

Prochains Passages (prochaines 24 heures)

TLE

FraisSource: Space-Track

Époque: Sep 14, 2026, 14:07 UTC

1 06139U 70025MV  26257.58878134  .00001483  00000-0  97229-3 0  9997
2 06139  98.9043 130.3745 0069714  86.8776 274.0364 14.02385036841546

Suivez THORAD AGENA D DEB en temps réel avec AllMySat

Download on the App Store